Temperature
25 24 23 22 21 20 20 20 19 19 19 19 19 18 18 18 18 18 18 18 18 18 18 18 18 18 18 18 18 18 18 18 18 18 18 18 18 18 18 18 18 18 18
25 24 23 22 21 20 20 19 19 19 19 19 19 18 18 18 18 18 18 18 18 18 18 18 18 18 18 18 18 18 18 18 18 18 18 18 18 19 19 18 18 18 18
25 24 23 22 21 20 20 20 19 19 19 19 19 18 18 18 18 18 18 18 18 18 18 18 18 18 18 18 18 18 18 18 18 18 18 18 18 18 19 18 18 18 18
25 24 23 22 21 20 20 20 19 19 19 19 19 18 18 18 18 18 18 18 18 18 18 18 18 18 18 18 18 18 18 18 18 18 18 18 18 18 18 18 18 18 18
25 24 23 22 21 21 20 20 19 19 19 19 18 18 18 18 18 18 18 18 18 18 18 18 18 18 18 18 18 18 18 18 18 18 18 18 18 18 18 18 18 18 18
26 24 23 22 22 21 20 20 19 19 19 19 18 18 18 18 18 18 18 18 18 18 18 18 18 18 18 18 18 18 18 18 18 18 18 18 18 18 18 18 18 18 18
26 24 23 22 22 21 20 20 19 19 19 19 18 18 18 18 18 18 18 18 18 18 18 18 18 18 18 18 18 17 18 18 18 18 18 18 18 18 18 18 17 17 17
26 25 24 22 22 21 21 20 20 19 19 19 19 18 18 18 18 18 18 18 18 18 18 18 18 18 18 17 17 17 17 17 17 17 17 17 17 17 17 17 17 17 17
27 25 24 23 22 21 21 20 20 19 19 19 19 18 18 18 18 18 18 18 18 18 18 18 18 17 17 17 17 17 17 17 17 17 17 17 17 17 17 17 17 17 16
27 26 24 23 22 21 21 20 20 19 19 19 19 18 18 18 18 18 18 18 18 18 18 17 17 17 17 17 17 17 17 17 17 17 17 17 17 17 17 17 17 17 17
27 25 24 24 23 22 21 20 19 19 19 19 18 18 18 18 18 18 18 18 17 17 17 17 17 17 17 17 17 17 16 16 16 16 16 16 16 16 16 16 17 16 16
27 26 24 24 23 22 21 20 20 19 19 18 18 18 18 18 18 18 17 17 17 17 17 17 17 17 17 17 16 16 16 16 16 16 16 16 16 16 16 16 16 16 16
26 25 24 23 23 22 21 20 20 19 19 18 18 18 18 18 18 18 17 17 17 17 17 17 17 17 16 16 16 16 16 16 16 16 16 16 16 16 16 16 15 15 15
26 25 24 23 22 21 21 20 20 19 19 18 18 18 18 18 18 18 17 17 17 17 17 17 16 16 16 16 16 16 16 16 16 16 15 15 15 15 15 15 15 15 15
25 24 23 22 22 21 20 20 19 19 19 18 18 18 18 18 18 17 17 17 17 16 16 16 16 16 16 16 15 15 15 15 15 15 15 15 15 15 15 15 15 14 14
25 24 23 22 21 21 20 19 19 19 18 18 18 18 17 17 17 17 17 17 17 16 16 16 16 16 15 15 15 15 15 15 15 15 15 15 15 14 14 14 14 14 14
24 24 23 22 21 20 20 19 19 19 18 18 17 17 17 17 17 17 17 17 16 16 16 16 16 16 15 15 15 15 15 14 14 14 14 14 14 14 14 14 14 14 13
24 23 22 21 21 20 19 19 19 18 18 18 17 17 17 17 17 16 16 16 16 16 16 15 15 15 15 15 15 15 14 14 14 14 14 14 13 13 13 13 13 13 13
23 22 22 21 20 20 19 19 18 18 18 17 17 17 17 17 16 16 16 16 15 15 15 15 15 15 15 15 14 14 14 14 14 14 13 13 13 13 13 12 12 12 12
22 22 21 21 20 19 19 18 18 17 17 17 17 17 16 16 16 16 16 15 15 15 14 14 14 14 14 14 14 14 13 13 13 13 13 13 13 13 12 12 12 12 11
21 21 20 20 19 19 18 18 18 17 17 17 16 16 16 16 16 15 15 15 15 15 14 14 14 14 14 14 14 13 13 13 13 12 12 12 12 12 12 12 12 11 11
20 20 19 19 19 18 18 18 17 17 17 16 16 16 16 16 15 15 15 15 15 14 14 14 13 13 13 13 13 13 13 13 12 12 12 12 12 12 11 11 11 11 11
19 19 18 18 18 17 17 17 17 16 16 16 16 16 16 15 15 15 15 15 14 14 14 13 13 13 13 13 13 13 12 12 12 12 12 11 11 11 11 11 11 11 11
18 18 18 17 17 17 16 16 16 16 16 16 16 16 15 15 15 15 14 14 14 14 13 13 13 13 12 12 12 12 12 12 12 11 11 11 11 11 10 10 10 10 10
18 17 17 17 16 16 16 16 16 16 15 15 15 15 15 15 14 14 14 14 13 13 13 13 13 12 12 12 12 12 11 11 11 11 11 10 10 10 10 10 10 10 10
17 17 16 16 16 16 15 15 15 15 15 15 15 15 14 14 14 14 13 13 13 13 13 13 13 12 12 12 12 11 11 11 11 10 10 10 10 10 10 10 10 10 10
Wind_Speed
10 10 10 10 10 8 7 6 5 5 4 4 4 3 3 3 3 3 5 6 4 4 3 1 2 2 2 2 2 1 2 3 3 2 1 2 4 5 4 4 3 5 8
11 11 10 9 9 8 7 6 5 5 5 4 3 3 3 3 4 2 3 5 5 5 5 3 3 2 1 2 2 1 1 3 3 1 1 1 2 2 5 4 4 4 5
11 11 9 8 8 8 7 6 5 6 5 4 3 2 2 2 2 3 3 3 5 5 3 4 3 2 3 3 3 3 3 3 3 2 1 1 2 1 1 2 2 1 2
11 10 9 8 8 8 7 6 6 6 5 5 4 4 4 3 3 3 3 3 4 4 5 4 4 3 2 2 4 4 3 3 3 2 2 2 1 1 1 1 1 2 2
11 10 9 8 8 8 8 7 6 5 5 4 4 4 3 2 2 2 2 3 3 4 5 5 3 3 3 3 3 2 3 2 3 2 2 2 2 3 3 2 1 1 1
11 10 9 8 7 7 7 7 6 5 4 4 3 3 3 2 1 1 1 2 2 3 4 4 3 4 3 3 3 2 3 2 2 2 2 2 2 2 3 3 3 2 1
11 11 9 9 7 7 6 6 6 5 4 4 3 3 3 2 2 2 2 3 2 2 2 2 2 3 3 3 2 2 2 3 3 3 3 3 2 2 2 2 3 2 1
10 10 10 9 7 7 6 6 6 5 5 4 3 2 2 2 2 2 2 2 1 1 1 1 2 3 3 3 2 2 3 2 3 3 2 2 2 2 2 2 2 2 1
10 10 10 9 8 7 6 6 6 5 5 5 4 3 2 1 1 1 1 1 1 1 0 1 2 2 2 2 1 1 2 1 1 2 2 2 3 2 2 2 2 2 2
9 9 9 9 9 8 7 6 6 5 4 4 4 4 3 2 1 1 1 1 2 2 1 1 1 1 0 1 1 1 0 1 0 1 1 2 2 2 2 1 1 2 2
10 9 7 8 8 9 8 7 6 5 4 3 3 3 3 2 1 0 0 0 1 1 1 1 1 1 1 1 0 0 0 0 0 1 1 1 1 2 2 1 1 1 1
9 10 8 8 7 7 7 7 6 5 4 4 3 3 2 2 1 1 0 0 0 0 0 0 1 0 1 1 0 1 0 0 1 1 2 2 1 2 2 2 1 0 1
8 8 8 7 6 6 6 5 5 5 5 4 4 3 2 2 1 0 0 0 0 0 0 1 0 0 1 1 1 1 1 1 1 1 1 2 2 2 2 2 2 1 1
8 7 7 6 6 5 5 5 4 4 4 4 4 3 2 2 2 1 1 1 0 0 1 1 1 1 2 2 2 1 1 1 1 1 1 2 2 2 2 1 1 1 0
8 7 7 7 5 5 5 4 4 4 4 4 4 3 3 2 2 2 2 1 1 1 2 2 2 2 3 3 3 1 1 1 1 1 2 3 4 4 3 2 2 2 1
7 7 7 7 6 5 5 5 4 4 4 3 3 3 3 2 2 2 2 2 2 2 2 2 3 3 4 6 7 4 2 1 1 1 1 3 4 4 5 5 5 3 1
6 5 6 7 6 5 5 4 4 4 4 3 3 3 2 2 2 2 2 2 2 2 2 2 3 3 4 6 6 5 2 2 3 3 2 2 3 3 2 3 3 4 4
5 5 5 6 6 6 5 4 4 4 3 3 2 2 2 2 2 2 2 2 2 2 2 2 2 3 4 6 6 5 2 2 3 4 4 4 4 6 5 3 4 4 4
5 5 5 6 6 5 5 5 5 4 3 2 2 2 1 1 2 2 2 2 2 2 2 3 3 3 4 5 5 4 1 3 4 4 6 5 5 7 7 3 2 3 2
5 5 6 7 6 5 5 5 4 4 3 2 1 1 2 1 1 1 1 2 2 2 3 3 3 3 3 4 4 4 1 2 3 4 5 8 7 7 7 4 3 2 2
7 6 6 6 6 6 5 5 4 3 2 2 2 2 2 2 1 1 1 2 2 2 2 3 3 3 4 4 4 4 2 1 2 3 3 4 6 6 6 5 3 2 2
8 8 7 7 6 5 5 5 4 3 3 2 2 3 2 1 1 2 1 2 3 3 2 3 2 2 3 3 3 3 4 3 3 3 4 4 4 4 4 3 3 3 3
8 7 7 7 6 5 5 5 4 3 3 3 3 2 2 2 2 2 1 1 2 2 2 2 2 2 3 3 3 4 4 5 3 3 5 4 3 1 1 1 2 3 2
7 7 7 6 6 5 5 5 4 3 3 2 2 2 2 2 3 2 1 1 1 0 1 1 1 2 2 2 1 1 2 3 3 3 3 3 1 1 1 1 2 1 2
6 6 6 6 6 5 5 4 3 3 2 2 1 2 2 3 3 3 4 3 3 2 0 0 1 1 1 1 2 2 1 1 2 2 2 1 1 1 1 1 1 1 0
5 5 5 5 5 4 4 4 3 2 2 1 1 1 1 2 3 3 4 9 7 8 8 7 4 4 4 4 4 4 4 4 3 1 1 1 1 1 1 1 1 1 1
Wind_Direction
147 143 147 146 146 146 155 166 170 161 168 175 180 185 195 206 213 213 185 186 206 191 198 249 178 223 222 210 205 201 210 233 229 229 244 244 219 196 191 203 199 187 187
142 144 151 149 151 154 161 166 170 168 181 182 181 190 198 209 201 202 167 194 200 200 197 202 235 226 217 223 242 232 242 253 231 206 209 257 276 248 221 192 200 198 183
147 146 151 152 155 159 164 170 163 166 180 177 180 192 184 235 202 185 182 203 206 208 221 194 224 232 225 207 225 224 228 247 253 211 192 196 229 259 277 218 192 170 171
138 143 150 154 158 162 162 157 157 165 169 177 195 191 194 208 208 199 188 193 206 211 220 217 217 237 249 209 229 219 228 233 254 250 239 232 225 209 279 312 221 187 180
138 143 148 152 158 162 160 156 153 162 169 186 199 200 209 210 208 201 188 202 210 216 223 219 213 222 241 238 244 228 231 225 233 247 247 245 227 220 216 248 260 257 203
138 141 146 146 150 152 155 154 153 161 172 190 196 196 221 234 250 243 252 233 224 225 231 224 209 212 231 239 238 238 231 236 241 259 265 248 223 221 216 221 217 226 228
142 145 148 148 149 150 151 146 148 159 170 183 190 195 205 220 235 233 233 242 245 240 228 224 212 221 223 224 227 232 232 229 237 242 255 263 249 247 243 226 235 231 214
146 149 151 150 152 153 149 143 143 154 169 175 176 191 191 211 238 238 250 234 246 252 241 189 203 229 223 229 209 222 235 224 232 241 247 272 272 263 247 243 234 240 247
140 144 147 145 148 150 146 143 142 154 167 166 160 170 173 195 258 284 272 292 298 256 306 169 208 232 221 224 214 226 248 219 233 258 261 268 273 268 261 247 226 220 229
138 140 141 146 147 149 146 140 142 148 158 163 168 161 163 161 179 280 3 10 355 6 4 327 291 296 263 198 205 242 222 156 204 277 308 304 305 306 300 286 248 225 217
140 136 143 138 144 147 146 147 146 153 158 158 152 141 143 149 148 172 2 341 349 17 353 347 333 352 30 46 191 234 154 236 21 304 301 310 334 332 318 309 294 266 192
134 136 137 129 132 134 139 141 148 156 157 150 142 137 136 133 142 166 214 236 17 8 73 28 345 338 55 68 50 310 38 56 49 16 11 351 341 339 338 333 301 234 200
127 132 130 133 132 127 127 133 148 152 151 144 142 138 140 139 145 183 165 91 90 80 128 122 97 11 42 41 28 27 46 63 71 56 23 2 5 339 335 327 320 293 234
131 132 127 121 122 122 123 132 134 127 129 127 124 125 129 134 136 135 110 107 100 131 85 69 58 50 47 41 31 64 94 78 62 66 58 29 18 346 315 303 316 298 221
140 137 134 127 126 126 128 124 124 119 124 127 131 140 138 131 130 112 95 80 73 81 72 60 48 42 44 41 36 22 91 81 78 84 85 70 67 53 29 21 7 4 55
146 146 144 140 142 139 136 134 137 129 126 133 135 129 134 136 127 112 109 98 82 73 78 70 66 55 48 41 41 30 47 45 41 63 87 108 87 77 80 75 62 55 75
139 144 146 145 145 143 137 146 146 144 144 136 129 133 138 134 133 136 123 116 107 97 83 78 81 76 55 45 39 34 36 56 54 45 29 43 57 64 72 93 90 68 58
126 124 134 135 136 139 144 143 137 133 138 139 138 136 142 136 116 115 122 130 125 117 105 102 98 88 61 52 38 22 42 75 68 59 51 51 42 26 29 51 72 76 55
118 124 130 126 125 130 135 133 129 128 125 124 131 140 146 129 124 133 145 148 138 128 114 101 102 91 71 48 36 15 51 85 75 64 52 47 52 30 27 42 72 88 97
95 109 117 115 113 114 117 123 127 128 130 126 120 114 107 113 134 131 132 132 137 121 109 101 96 97 92 67 44 17 62 109 105 95 80 59 53 39 27 26 42 62 44
92 91 101 105 108 114 117 118 114 113 113 112 111 108 102 106 124 110 115 134 133 118 108 104 95 91 89 87 60 37 21 61 100 101 90 74 65 50 28 23 42 39 341
92 90 90 90 93 106 112 109 95 79 75 81 85 81 83 86 99 110 127 141 138 138 130 122 110 94 90 78 69 59 45 39 66 73 92 97 88 59 27 25 18 355 338
92 91 93 89 86 88 97 99 85 75 78 79 81 87 83 69 67 81 99 140 158 160 149 159 160 119 104 88 86 85 69 63 76 85 103 123 118 76 3 306 330 337 317
91 91 91 88 83 78 80 84 79 75 85 92 99 101 98 84 73 56 45 49 42 91 130 142 140 121 116 104 99 141 120 104 109 122 131 140 144 297 322 312 290 287 338
90 88 87 86 85 82 80 84 82 86 94 102 99 114 117 112 94 62 36 43 43 28 32 44 62 109 128 104 111 108 89 81 95 121 147 180 190 219 238 244 260 277 265
94 93 90 86 86 85 82 74 76 84 89 102 79 89 120 111 112 109 79 50 59 58 58 58 67 70 88 115 100 79 67 70 76 103 190 185 214 243 229 235 246 286 321
Height
1530 1533 1535 1537 1538 1539 1540 1541 1543 1544 1545 1546 1548 1549 1551 1552 1553 1554 1555 1556 1557 1558 1559 1561 1562 1562 1563 1564 1565 1565 1566 1566 1567 1568 1568 1569 1569 1570 1570 1571 1571 1572 1572
1529 1532 1535 1537 1538 1539 1540 1541 1542 1543 1544 1545 1547 1548 1550 1551 1552 1554 1554 1555 1556 1557 1558 1559 1560 1561 1562 1562 1563 1563 1564 1565 1566 1567 1567 1567 1569 1568 1568 1568 1569 1570 1570
1528 1531 1534 1536 1537 1538 1539 1540 1541 1541 1543 1544 1546 1548 1549 1550 1551 1552 1553 1553 1554 1555 1556 1558 1558 1559 1560 1560 1561 1562 1562 1563 1564 1565 1566 1566 1565 1566 1566 1566 1567 1567 1568
1527 1530 1533 1535 1537 1538 1538 1539 1540 1541 1542 1543 1545 1546 1547 1548 1550 1550 1551 1552 1553 1554 1555 1556 1556 1557 1558 1558 1559 1559 1560 1561 1562 1563 1563 1564 1564 1565 1564 1565 1564 1565 1564
1526 1530 1532 1534 1536 1537 1538 1539 1539 1540 1541 1542 1544 1545 1546 1547 1548 1549 1550 1551 1551 1552 1553 1554 1554 1555 1556 1556 1557 1557 1558 1558 1559 1560 1561 1561 1562 1562 1562 1562 1563 1563 1563
1526 1529 1532 1534 1535 1537 1537 1538 1539 1539 1541 1542 1543 1544 1545 1546 1547 1548 1548 1549 1550 1550 1551 1551 1552 1552 1553 1553 1554 1555 1555 1556 1557 1557 1558 1559 1559 1559 1560 1560 1560 1560 1560
1525 1528 1530 1533 1535 1536 1537 1537 1538 1539 1540 1541 1542 1543 1544 1545 1546 1547 1547 1548 1548 1548 1549 1549 1549 1550 1550 1551 1552 1552 1552 1553 1554 1555 1555 1556 1556 1557 1557 1557 1557 1557 1558
1524 1526 1529 1531 1533 1535 1537 1537 1538 1538 1539 1540 1541 1542 1543 1544 1545 1546 1546 1546 1546 1547 1547 1547 1547 1548 1548 1549 1549 1550 1550 1551 1551 1552 1552 1553 1553 1554 1554 1554 1554 1555 1555
1522 1526 1529 1531 1533 1535 1536 1537 1537 1538 1539 1540 1540 1541 1542 1543 1544 1545 1545 1545 1545 1545 1545 1545 1545 1545 1546 1546 1547 1548 1548 1549 1549 1549 1549 1550 1550 1551 1551 1551 1552 1552 1552
1523 1526 1528 1531 1532 1534 1535 1536 1537 1538 1539 1540 1540 1541 1541 1542 1543 1543 1544 1544 1544 1544 1544 1544 1544 1544 1544 1544 1545 1545 1546 1546 1546 1547 1547 1547 1547 1548 1548 1548 1548 1549 1549
1522 1526 1528 1530 1532 1534 1535 1536 1537 1538 1539 1539 1540 1541 1541 1541 1542 1542 1542 1543 1543 1542 1542 1542 1542 1542 1542 1542 1543 1543 1543 1544 1544 1544 1544 1544 1545 1545 1545 1545 1545 1545 1546
1522 1525 1528 1530 1532 1534 1535 1536 1537 1538 1538 1539 1539 1540 1540 1541 1541 1541 1541 1542 1541 1541 1541 1541 1541 1541 1541 1541 1541 1541 1541 1541 1541 1541 1542 1542 1542 1542 1542 1542 1543 1543 1543
1522 1525 1528 1530 1532 1534 1535 1536 1537 1538 1538 1538 1539 1539 1539 1540 1540 1540 1540 1540 1540 1540 1540 1539 1539 1539 1539 1539 1539 1539 1539 1539 1539 1539 1539 1540 1540 1540 1540 1540 1540 1540 1540
1523 1525 1528 1530 1532 1533 1535 1536 1537 1537 1538 1538 1538 1539 1539 1539 1539 1539 1539 1539 1539 1539 1539 1538 1538 1538 1537 1537 1538 1537 1537 1537 1537 1537 1538 1538 1538 1537 1537 1537 1537 1538 1538
1523 1526 1528 1530 1532 1533 1535 1536 1537 1537 1537 1537 1538 1538 1538 1538 1538 1538 1538 1538 1538 1538 1538 1537 1537 1537 1536 1536 1536 1536 1536 1536 1536 1536 1536 1536 1536 1536 1535 1535 1535 1535 1535
1522 1525 1528 1529 1531 1533 1534 1535 1536 1536 1536 1537 1537 1537 1537 1537 1537 1538 1538 1538 1537 1537 1537 1536 1536 1536 1535 1535 1535 1535 1535 1535 1535 1535 1535 1535 1534 1534 1534 1533 1533 1533 1533
1522 1525 1526 1528 1530 1532 1533 1534 1535 1535 1536 1536 1536 1537 1537 1537 1537 1537 1536 1536 1536 1536 1536 1535 1535 1535 1534 1535 1535 1535 1535 1534 1534 1534 1534 1534 1533 1533 1532 1531 1531 1531 1531
1522 1524 1526 1528 1529 1531 1532 1533 1534 1535 1535 1535 1536 1536 1536 1536 1536 1536 1535 1535 1535 1535 1535 1534 1534 1534 1534 1534 1534 1534 1534 1534 1533 1533 1533 1532 1532 1532 1531 1530 1530 1530 1530
1522 1524 1526 1527 1528 1530 1531 1532 1533 1533 1534 1535 1535 1535 1535 1535 1535 1534 1534 1534 1534 1534 1534 1534 1533 1533 1533 1533 1533 1533 1533 1533 1532 1532 1532 1532 1531 1531 1530 1530 1530 1529 1529
1522 1524 1525 1526 1527 1529 1530 1531 1532 1533 1533 1534 1534 1535 1535 1534 1534 1534 1533 1534 1534 1534 1533 1533 1533 1532 1532 1532 1532 1533 1532 1532 1532 1531 1531 1530 1530 1530 1530 1529 1529 1529 1529
1523 1524 1525 1526 1527 1528 1530 1531 1532 1533 1533 1534 1534 1533 1533 1533 1533 1533 1533 1533 1533 1533 1532 1532 1532 1532 1532 1531 1532 1532 1532 1532 1531 1531 1530 1530 1530 1530 1529 1529 1529 1529 1529
1523 1524 1525 1526 1527 1528 1529 1530 1531 1532 1533 1533 1533 1533 1533 1532 1532 1532 1532 1532 1532 1532 1532 1531 1531 1531 1531 1531 1531 1531 1531 1531 1531 1530 1530 1530 1529 1529 1529 1529 1529 1529 1529
1524 1525 1526 1527 1528 1529 1529 1530 1531 1532 1532 1532 1532 1532 1532 1532 1531 1531 1530 1530 1530 1530 1530 1530 1530 1530 1529 1529 1529 1529 1529 1529 1530 1529 1529 1529 1529 1529 1529 1529 1529 1529 1528
1524 1525 1526 1527 1528 1529 1529 1530 1530 1531 1531 1531 1531 1531 1531 1531 1530 1530 1530 1530 1529 1529 1529 1529 1529 1529 1529 1528 1528 1528 1528 1528 1528 1528 1528 1528 1528 1528 1528 1528 1528 1528 1528
1525 1526 1527 1528 1528 1529 1529 1529 1530 1530 1530 1530 1530 1530 1530 1530 1530 1530 1529 1529 1528 1528 1528 1528 1528 1528 1527 1527 1527 1527 1527 1527 1527 1527 1527 1527 1527 1527 1527 1527 1528 1527 1527
1526 1527 1527 1528 1528 1529 1529 1529 1529 1529 1529 1530 1530 1530 1530 1529 1529 1528 1528 1528 1528 1527 1527 1526 1526 1526 1526 1526 1526 1526 1526 1526 1526 1526 1526 1526 1527 1527 1527 1527 1526 1526 1526